GLT1 KCRQ-KLEX

Flight info

Callsign GLT1
Flight time N/A
Altitude 39000
Route TRM BLH ABQ MMB FAM PLESS PXV IIU
Aircraft C750/M-VGDW/C

Departure

Time 2026-04-20 00:21
Airport McClellan-Palomar Airport (KCRQ)

Arrival

Time N/A
Airport Blue Grass Airport (KLEX)
Time Latitude Longitude Altitude Speed Heading
2026-04-20 00:09 33.12721 -117.27951 328 ft 0 kts 260°
2026-04-20 00:17 33.12719 -117.27968 328 ft 4 kts 260°
2026-04-20 00:17 33.12715 -117.28001 328 ft 4 kts 271°
2026-04-20 00:18 33.12738 -117.28011 325 ft 5 kts 42°
2026-04-20 00:18 33.12755 -117.27933 326 ft 14 kts 79°
2026-04-20 00:18 33.12777 -117.27796 327 ft 17 kts 79°
2026-04-20 00:18 33.12798 -117.27667 328 ft 15 kts 79°
2026-04-20 00:19 33.12817 -117.27549 328 ft 14 kts 79°
2026-04-20 00:19 33.12834 -117.27443 328 ft 12 kts 79°
2026-04-20 00:19 33.12849 -117.27349 328 ft 11 kts 79°
2026-04-20 00:19 33.12875 -117.27273 329 ft 10 kts 51°
2026-04-20 00:20 33.12925 -117.27229 328 ft 7 kts
2026-04-20 00:20 33.12945 -117.27271 331 ft 20 kts 258°
2026-04-20 00:20 33.12856 -117.27817 330 ft 116 kts 259°
2026-04-20 00:20 33.12681 -117.28941 665 ft 141 kts 260°
2026-04-20 00:21 33.12510 -117.30100 1302 ft 145 kts 259°
2026-04-20 00:21 33.12311 -117.31332 1879 ft 157 kts 257°
2026-04-20 00:21 33.12057 -117.32644 2639 ft 162 kts 255°
2026-04-20 00:21 33.11890 -117.33999 3238 ft 178 kts 277°
2026-04-20 00:22 33.12622 -117.35272 3523 ft 208 kts 326°
2026-04-20 00:22 33.14134 -117.35563 3786 ft 241 kts 11°
2026-04-20 00:22 33.15647 -117.34491 4191 ft 269 kts 47°
2026-04-20 00:22 33.16647 -117.32555 5030 ft 276 kts 65°
2026-04-20 00:23 33.17452 -117.30512 6179 ft 269 kts 66°
2026-04-20 00:23 33.18258 -117.28424 6759 ft 286 kts 66°
2026-04-20 00:23 33.19136 -117.26278 7697 ft 287 kts 65°
2026-04-20 00:23 33.20017 -117.24129 8641 ft 291 kts 65°
2026-04-20 00:24 33.20902 -117.21920 9543 ft 296 kts 66°
2026-04-20 00:24 33.21793 -117.19689 10360 ft 302 kts 66°
2026-04-20 00:24 33.22719 -117.17371 10610 ft 326 kts 66°
2026-04-20 00:24 33.23752 -117.14802 10763 ft 350 kts 66°
2026-04-20 00:25 33.24818 -117.12152 11170 ft 363 kts 66°
2026-04-20 00:25 33.25907 -117.09435 12057 ft 361 kts 66°
2026-04-20 00:25 33.26993 -117.06715 12736 ft 365 kts 66°
2026-04-20 00:25 33.28090 -117.03970 13380 ft 368 kts 66°
2026-04-20 00:26 33.29204 -117.01187 14010 ft 372 kts 66°
2026-04-20 00:26 33.30327 -116.98378 14607 ft 372 kts 66°
2026-04-20 00:26 33.31432 -116.95616 14992 ft 374 kts 66°
2026-04-20 00:26 33.32581 -116.92727 15034 ft 395 kts 66°
2026-04-20 00:27 33.33750 -116.89792 16028 ft 383 kts 66°
2026-04-20 00:27 33.34904 -116.86898 16636 ft 389 kts 66°
2026-04-20 00:27 33.36055 -116.83994 17216 ft 393 kts 66°
2026-04-20 00:27 33.37247 -116.80992 17861 ft 397 kts 66°
2026-04-20 00:28 33.38426 -116.78028 18435 ft 401 kts 66°
2026-04-20 00:28 33.39629 -116.74998 19042 ft 405 kts 66°
2026-04-20 00:28 33.40842 -116.71934 19653 ft 409 kts 66°
2026-04-20 00:28 33.42067 -116.68841 20272 ft 414 kts 66°
2026-04-20 00:29 33.43308 -116.65706 20880 ft 418 kts 66°
2026-04-20 00:29 33.44557 -116.62542 21475 ft 422 kts 66°
2026-04-20 00:29 33.45820 -116.59346 22073 ft 426 kts 66°
2026-04-20 00:29 33.47091 -116.56129 22639 ft 430 kts 65°
2026-04-20 00:30 33.48373 -116.52875 23203 ft 434 kts 65°
2026-04-20 00:30 33.49661 -116.49597 23762 ft 437 kts 65°
2026-04-20 00:30 33.50964 -116.46285 24300 ft 441 kts 65°
2026-04-20 00:30 33.52279 -116.42942 24848 ft 444 kts 65°
2026-04-20 00:31 33.53601 -116.39576 25379 ft 447 kts 65°
2026-04-20 00:31 33.54908 -116.36233 25792 ft 451 kts 66°
2026-04-20 00:31 33.56248 -116.32818 26304 ft 454 kts 66°
2026-04-20 00:31 33.57599 -116.29375 26805 ft 457 kts 66°
2026-04-20 00:32 33.58952 -116.25911 27278 ft 460 kts 66°
2026-04-20 00:32 33.60318 -116.22412 27753 ft 464 kts 66°
2026-04-20 00:32 33.61613 -116.18843 28151 ft 467 kts 71°
2026-04-20 00:32 33.62422 -116.15075 28630 ft 467 kts 81°
2026-04-20 00:33 33.62721 -116.11194 29063 ft 468 kts 91°
2026-04-20 00:33 33.62653 -116.07286 29499 ft 470 kts 94°
2026-04-20 00:33 33.62577 -116.03403 29932 ft 473 kts 93°
2026-04-20 00:33 33.62514 -115.99445 30353 ft 475 kts 93°
2026-04-20 00:34 33.62444 -115.95465 30788 ft 478 kts 94°
2026-04-20 00:34 33.62364 -115.91490 31450 ft 475 kts 94°
2026-04-20 00:34 33.62285 -115.87538 32096 ft 472 kts 94°
2026-04-20 00:34 33.62209 -115.83610 32647 ft 470 kts 94°
2026-04-20 00:35 33.62131 -115.79691 33220 ft 468 kts 94°
2026-04-20 00:35 33.62051 -115.75782 33797 ft 466 kts 95°
2026-04-20 00:35 33.61970 -115.71911 34346 ft 465 kts 95°
2026-04-20 00:35 33.61888 -115.68019 34746 ft 467 kts 95°
2026-04-20 00:36 33.61804 -115.64112 35097 ft 471 kts 95°
2026-04-20 00:36 33.61720 -115.60225 35476 ft 473 kts 95°
2026-04-20 00:36 33.61634 -115.56260 35833 ft 477 kts 95°
2026-04-20 00:36 33.61547 -115.52274 36165 ft 480 kts 96°
2026-04-20 00:37 33.61456 -115.48262 36477 ft 483 kts 96°
2026-04-20 00:37 33.61362 -115.44209 36724 ft 492 kts 96°
2026-04-20 00:37 33.61265 -115.40145 37374 ft 482 kts 96°
2026-04-20 00:37 33.61164 -115.36081 37779 ft 492 kts 96°
2026-04-20 00:38 33.61060 -115.31989 38029 ft 491 kts 96°
2026-04-20 00:38 33.60975 -115.27938 38165 ft 483 kts 96°
2026-04-20 00:38 33.60901 -115.23898 38183 ft 487 kts 95°
2026-04-20 00:38 33.60780 -115.19777 38304 ft 501 kts 95°
2026-04-20 00:39 33.60670 -115.15588 38579 ft 501 kts 96°
2026-04-20 00:39 33.60559 -115.11450 38846 ft 500 kts 95°
2026-04-20 00:39 33.60465 -115.07264 38846 ft 512 kts 96°
2026-04-20 00:39 33.60343 -115.02940 38873 ft 523 kts 96°
2026-04-20 00:40 33.60230 -114.98491 38835 ft 540 kts 96°
2026-04-20 00:40 33.59975 -114.89363 38852 ft 555 kts 96°
2026-04-20 00:41 33.59688 -114.80021 38829 ft 563 kts 95°
2026-04-20 00:41 33.60598 -114.70540 38794 ft 581 kts 79°
2026-04-20 00:42 33.62862 -114.61369 38840 ft 571 kts 75°
2026-04-20 00:42 33.64813 -114.52139 38780 ft 575 kts 80°
2026-04-20 00:43 33.66783 -114.42865 38829 ft 577 kts 77°